Regional Weather Roundup
Issued by NWS

Home | Current Version | Previous Version | Graphics & Text | Print | Product List | Glossary On
Versions: 1 2 3 4 5 6 7 8 9 10 11 12 13 14 15 16 17 18 19 20 21 22 23 24 25 26 27 28
000
ASUS45 KGTF 050510
RWRMT
MONTANA HOURLY WEATHER ROUNDUP
NATIONAL WEATHER SERVICE GREAT FALLS MT
1100 PM MDT MON MAY 04 2015

NOTE: "FAIR" INDICATES FEW OR NO CLOUDS BELOW 12000 FEET WITH NO
SIGNIFICANT WEATHER AND/OR OBSTRUCTIONS TO VISIBILITY.

MTZ001>007-043-050600-
WEST OF THE DIVIDE

CITY           SKY/WX    TMP DP  RH WIND       PRES   REMARKS
KALISPELL      CLEAR     48  34  58 N5        29.75S
MISSOULA       PTCLDY    54  32  43 N3        29.78S
BUTTE          MOCLDY    52  28  39 S9        29.89S
DEER LODGE       N/A     54  30  40 W5        29.89S
EUREKA           N/A     52  27  37 CALM      29.74
HAMILTON         N/A     59  32  36 S10       29.79S
LIBBY            N/A     54  30  40 SE3       29.76R
$$

MTZ008-052>055-050600-
SOUTHWEST MONTANA

CITY           SKY/WX    TMP DP  RH WIND       PRES   REMARKS
BOZEMAN        PTCLDY    56  35  45 CALM      29.84S
DILLON         MOCLDY    59  30  33 S10       29.87S
$$

MTZ009-010-012-014-046-048-049-054-050600-
EAST SLOPES AND CENTRAL MONTANA

CITY           SKY/WX    TMP DP  RH WIND       PRES   REMARKS
CUT BANK       CLEAR     46  23  40 NE7       29.78F
GREAT FALLS    PTCLDY    50  23  34 SW7       29.79R
MALMSTROM AFB  PTCLDY    49  28  44 S10       29.78F
HELENA         MOCLDY    60  27  28 W3        29.81R
$$

MTZ011-013-016-021-045-047-050-051-050600-
NORTH CENTRAL MONTANA

CITY           SKY/WX    TMP DP  RH WIND       PRES   REMARKS
HAVRE          CLEAR     58  41  53 CALM      29.76R
LEWISTOWN      CLEAR     54  40  59 E9        29.86F
CHINOOK          N/A     64  41  42 E5        29.77S
FORT BENTON      N/A     61  37  41 W3        29.76S
$$

MTZ017>020-022>042-056>058-061-062-050600-
EASTERN PLAINS

CITY           SKY/WX    TMP DP  RH WIND       PRES   REMARKS
BAKER          CLEAR     45  32  60 SE13      30.03S
BILLINGS       PTCLDY    59  38  45 N3        29.86F
GLASGOW        CLEAR     55  37  50 SE17      29.87F
JORDAN           N/A     57  40  52 SE16      29.87F
LIVINGSTON     CLEAR     56  41  57 E10       29.87S
MILES CITY     CLEAR     54  36  50 SE15G29   29.93S
SIDNEY         CLEAR     52  30  43 S10       30.01F
WOLF POINT     CLEAR     54  35  48 E9        29.94S
BIG TIMBER       N/A     54  41  62 NE6       29.89S
FORSYTH          N/A     55  39  54 NE8       29.89S
PLENTYWOOD       N/A     54  36  50 SE17      29.99F
POPLAR           N/A     54  34  47 E10       29.97S
$$

REGIONAL REPORTS...DAKOTAS

CITY           SKY/WX    TMP DP  RH WIND       PRES   REMARKS
WILLISTON      CLEAR     55  38  52 SE10      30.03F
MINOT          CLOUDY    59  29  31 S9        30.08F
DICKINSON      CLEAR     44  31  60 SE12      30.06F
BEACH          FAIR      46  32  57 S15       30.03F
CROSBY         FAIR      54  36  50 S15G21    30.03F
WATFORD CITY   FAIR      52  32  46 SE13      30.03F
BISMARCK       MOCLDY    49  33  54 SE5       30.12F
GRAND FORKS    CLEAR     50  27  40 SE7       30.16S
FARGO          CLEAR     47  26  44 SE6       30.18S
BUFFALO SD       N/A     49  30  48 SE17      29.99F
RAPID CITY     CLOUDY    48  39  71 S3        30.10F
$$

REGIONAL REPORTS...WYOMING/IDAHO/WASHINGTON

CITY           SKY/WX    TMP DP  RH WIND       PRES   REMARKS
GILLETTE       PTCLDY    47  33  58 S23       30.01F
SHERIDAN       CLEAR     56  44  64 SE13G20   29.90F
BUFFALO WY     PTCLDY    49  41  74 S16       29.99F
CODY           PTCLDY    54  43  66 S6        29.93F
YELLOWSTONE LA   N/A     35  31  85 NW3       30.07S
IDAHO FALLS    CLOUDY    62  40  44 SW6       29.91S
SALMON           N/A     63  32  31 CALM      29.82R
BOISE          CLOUDY    75  34  22 SE22G36   29.77R
SPOKANE        CLEAR     64  29  26 S16       29.75S
$$

REGIONAL REPORTS...ALBERTA

CITY           SKY/WX    TMP DP  RH WIND       PRES   REMARKS
EDMONTON       CLEAR     46  32  57 E17       29.82F
CALGARY        PTCLDY    54  27  35 SE12G18   29.71S
LETHBRIDGE     CLEAR     46  28  49 S17       29.74S
MEDICINE HAT   CLEAR     54  37  54 E6        29.73S
$$

REGIONAL REPORTS...SASKATCHEWAN

CITY           SKY/WX    TMP DP  RH WIND       PRES   REMARKS
SWIFT CURRENT  PTCLDY    59  45  58 S22G28    29.78F
REGINA         MOCLDY    57  41  54 SE16G24   29.93R
SASKATOON      PTCLDY    52  32  46 E15       29.91F
$$



USA.gov is the U.S. government's official web portal to all federal, state and local government web resources and services.